Regional Weather Roundup
Issued by NWS

Home | Current Version | Previous Version | Graphics & Text | Print | Product List | Glossary On
Versions: 1 2 3 4 5 6 7 8 9 10 11 12 13 14 15 16 17 18 19 20 21 22 23 24 25 26 27
000
ASUS45 KBOU 182007
RWRCO

WEATHER ROUNDUP FOR COLORADO
NATIONAL WEATHER SERVICE DENVER/BOULDER CO
100 PM MST SAT FEB 18 2017

NOTE: "FAIR" INDICATES FEW OR NO CLOUDS BELOW 12000 FEET WITH NO
SIGNIFICANT WEATHER AND/OR OBSTRUCTIONS TO VISIBILITY.

COZ001>005-013-030-031-182100-
...NORTHWEST COLORADO...

CITY           SKY/WX    TMP DP  RH WIND       PRES   REMARKS
CRAIG          CLOUDY    48  31  51 E5        29.76F
HAYDEN         FAIR      45  28  53 NE6       29.76F
MEEKER         CLOUDY    50  28  42 SW8       29.76F
MOUNT WERNER   NOT AVBL
STEAMBOAT SPGS FAIR      44  31  60 CALM      29.76F
WALDEN           N/A     41  27  56 SE3       29.79F
$$

COZ006>008-011-182100-
...WEST CENTRAL VALLEYS...

CITY           SKY/WX    TMP DP  RH WIND       PRES   REMARKS
GRAND JUNCTION CLOUDY    48  38  68 NW14      29.76F
MONTROSE       FAIR      53  30  41 N8        29.76F
EAGLE          SUNNY     50  28  43 W3        29.76F
RIFLE          CLOUDY    54  30  40 NW9       29.73F
DELTA          PTSUNNY   57  34  41 NE3       29.75F
NUCLA          LGT RAIN  46  36  66 NW9       29.82S
$$

COZ017>023-064>068-182100-
...SOUTHWEST COLORADO...

CITY           SKY/WX    TMP DP  RH WIND       PRES   REMARKS
DURANGO        PTSUNNY   50  28  42 E8        29.79F
CORTEZ         CLOUDY    53  32  44 VRB7      29.75F
PAGOSA SPRINGS PTSUNNY   46  19  34 CALM      29.82F
TELLURIDE      CLOUDY    40  28  60 W9        29.82F
WOLF CREEK PAS PTSUNNY   30  19  64 S12G23    29.98F WCI  21
$$

COZ009-010-012-014-032>034-037-058>063-182100-
...CENTRAL COLORADO...

CITY           SKY/WX    TMP DP  RH WIND       PRES   REMARKS
ASPEN          FAIR      48  27  44 N6        29.75F
BUENA VISTA    FAIR      46  26  45 MISG      29.83F
COPPER MTN     NOT AVBL
BERTHOUD PASS  CLOUDY    28  18  64 SE17G25   29.92F WCI  16
COTTONWOOD PAS FAIR      41  27  56 CALM      29.88F
GUNNISON       FAIR      35  27  72 NE12      29.83F WCI  27
KREMMLING      FAIR      54  30  40 CALM      29.78F
LEADVILLE      FAIR      36  23  59 S15       29.83F
MONARCH PASS   PTSUNNY   32  23  69 CALM      30.03F
SALIDA         FAIR      54  25  32 S10G17    29.88F
SUNLIGHT       NOT AVBL
WILKERSON PASS PTSUNNY   36  23  60 SW6       29.94F
$$

COZ069>075-182100-
...SAN LUIS VALLEY/SANGRE DE CRISTO MOUNTAINS...

CITY           SKY/WX    TMP DP  RH WIND       PRES   REMARKS
ALAMOSA        FAIR      47  30  51 VRB3      29.83F
LA VETA PASS   FAIR      45  27  49 NE15      29.91F
SAGUACHE       FAIR      46  28  49 SE7       29.85F
$$

COZ035-036-038>040-182100-
...NORTHERN COLORADO FRONT RANGE...

CITY           SKY/WX    TMP DP  RH WIND       PRES   REMARKS
DENVER INTL AP PTSUNNY   62  22  21 SE8       29.70F
DMNS CITY PARK   N/A     65  21  18 SE9G16    29.67F
AURORA         PTSUNNY   64  24  21 E7        29.69F
FRONT RANGE AP PTSUNNY   64  23  20 E10G17    29.71F
ERIE MUNI ARPT FAIR      61  19  19 E7        29.69F
BOULDER MUN AP FAIR      55  21  26 N3        29.69F
CENTENNIAL     PTSUNNY   63  21  20 CALM      29.69F
BROOMFIELD     PTSUNNY   61  21  21 E8        29.71F
FORT COLLINS   FAIR      55  20  25 SW3       29.70F
LONGMONT       FAIR      58  19  21 NE3       29.71F
$$

COZ041-046-047-076>085-087-088-182100-
...PIKES PEAK/PALMER DIVIDE AND SOUTHERN FOOTHILLS...

CITY           SKY/WX    TMP DP  RH WIND       PRES   REMARKS
COLO. SPRINGS  PTSUNNY   59  19  21 S16       29.76F
A. F. ACADEMY  FAIR      58  19  22 SE13      29.74F
SCHRIEVER AFB  FAIR      56  20  24 S10G17    29.77F
ELLICOTT       FAIR     N/A N/A N/A S13       29.76F
FALCON         FAIR      57  19  22 S16G23    29.79F
FORT CARSON    FAIR      59  21  23 SE12G20   29.74F
LIMON          FAIR      60  22  23 S16       29.76F
MONUMENT HILL  FAIR      55  21  26 S16G26    29.77F
TRINIDAD       FAIR      63  24  22 MISG      29.74F
$$

COZ042>045-048>051-090-091-182100-
...NORTHEAST COLORADO...

CITY           SKY/WX    TMP DP  RH WIND       PRES   REMARKS
GREELEY ARPT   FAIR      58  22  24 E5        29.71F
AKRON          FAIR      64  20  18 S18       29.73F
BURLINGTON     FAIR      62  25  24 S18       29.77F
WRAY           NOT AVBL
STERLING       FAIR      63  28  27 SW10      29.71F
HOLYOKE        FAIR      63  30  29 S15       29.74F
FORT MORGAN    FAIR      58  20  22 CALM      29.73F
$$

COZ086-089-092>099-182100-
...SOUTHEAST COLORADO...

CITY           SKY/WX    TMP DP  RH WIND       PRES   REMARKS
PUEBLO         FAIR      59  24  26 E8        29.72F
LA JUNTA       FAIR      61  25  25 VRB5      29.74F
LAMAR          FAIR      58  27  30 CALM      29.74F
SPRINGFIELD      N/A     65  19  17 S15       29.76F
$$




USA.gov is the U.S. government's official web portal to all federal, state and local government web resources and services.